Tracking 35334 objects as of 13-Sep-2026
HD Live streaming from Space Station
objects crossing your sky now

COSMOS 1768 DEB


COSMOS 1768 DEB is no longer on orbit


NORAD ID: 16916
Int'l Code: 1986-058H
Launch date: August 2, 1986
Source: Commonwealth of Independent States (former USSR) (CIS)
Launch site: PLESETSK MISSILE AND SPACE COMPLEX (PKMTR)
Decay date: 1986-08-31

Note: This is SATELLITE DEBRIS
Your satellite tracking list
Your tracking list is empty




NASA's NSSDC Master Catalog

Two Line Element Set (TLE):
1 16916U 86058H   86243.57173003  .17701304 -10321-4 +36039-2 0  9997
2 16916 082.5623 086.0549 0059713 253.8442 108.8260 16.25975752004666
Source of the keplerian elements: AFSPC